Ridgecrest, CA

4:35 AM PST on December 08, 2016 (GMT -0800)
China Lake NAWS

Weather History for KNID - June, 2013

Change the Weather History Date:

Friday, June 28, 2013

  Actual Average Record
Temperature  
Mean Temperature 92 °F -  
Max Temperature 111 °F 98 °F 111 °F (2013)
Min Temperature 73 °F 68 °F 61 °F (2001)
Cooling Degree Days 27    
Growing Degree Days 42 (Base 50)    
Moisture  
Dew Point 48 °F    
Average Humidity 23    
Maximum Humidity 45    
Minimum Humidity 7    
Precipitation  
Precipitation 0.00 in - - ()
Sea Level Pressure  
Sea Level Pressure 29.86 in    
Wind  
Wind Speed 6 mph (SSW)    
Max Wind Speed 15 mph    
Max Gust Speed 25 mph    
Visibility 10 miles    
Events      
Averages and records for this station are not official NWS values.
T = Trace of Precipitation, MM = Missing Value Source: NWS Daily Summary

Daily Weather History Graph

Daily Weather History Graph

Search for Another Location

Airport or City:

Trip Planner

Search our weather history database for the weather conditions in past years. The results will help you decide how hot, cold, wet, or windy it might be!

Date:

Astronomy

Jun. 28, 2013 Rise Set
Actual Time 5:37 AM PDT 8:10 PM PDT
Civil Twilight 5:07 AM PDT 8:40 PM PDT
Nautical Twilight 4:30 AM PDT 9:17 PM PDT
Astronomical Twilight 3:48 AM PDT 9:59 PM PDT
Moon 11:56 PM PDT (6/28) 11:37 AM PDT (6/28)
Length of Visible Light 15h 33m
Length of Day
14h 33m
Waning Gibbous, 65% of the Moon is Illuminated
Jun 28
Waning Gibbous
Jun 29
Last Quarter
Jul 8
New
Jul 15
First Quarter
Jul 22
Full

Hourly Weather History & Observations

Time (PDT) Temp. Heat Index Dew Point Humidity Pressure Visibility Wind Dir Wind Speed Gust Speed Precip Events Conditions
12:56 AM 86.0 °F 84.0 °F 53.1 °F 32% 29.90 in 10.0 mi SSW 8.1 mph - N/A   Clear
1:56 AM 86.0 °F 84.2 °F 54.0 °F 33% 29.90 in 10.0 mi South 10.4 mph - N/A   Clear
2:56 AM 82.0 °F 81.3 °F 54.0 °F 38% 29.89 in 10.0 mi SSW 6.9 mph - N/A   Clear
3:56 AM 79.0 °F - 51.1 °F 38% 29.89 in 10.0 mi Calm Calm - N/A   Clear
4:56 AM 78.1 °F - 52.0 °F 40% 29.90 in 10.0 mi West 4.6 mph - N/A   Clear
5:56 AM 73.9 °F - 51.1 °F 45% 29.91 in 10.0 mi Calm Calm - N/A   Partly Cloudy
6:56 AM 79.0 °F - 51.1 °F 38% 29.93 in 10.0 mi Calm Calm - N/A   Clear
7:56 AM 82.0 °F - 51.1 °F 34% 29.95 in 10.0 mi Calm Calm - N/A   Clear
8:56 AM 87.1 °F - 52.0 °F 30% 29.95 in 10.0 mi Calm Calm - N/A   Clear
9:56 AM 93.9 °F - 52.0 °F 24% 29.94 in 10.0 mi Calm Calm - N/A   Clear
10:56 AM 100.0 °F - 48.9 °F 18% 29.91 in 10.0 mi Calm Calm - N/A   Partly Cloudy
11:56 AM 102.9 °F - 48.9 °F 16% 29.90 in 10.0 mi Calm Calm - N/A   Partly Cloudy
12:56 PM 107.1 °F - 45.0 °F 12% 29.88 in 10.0 mi SSE 9.2 mph - N/A   Partly Cloudy
1:56 PM 109.0 °F - 44.1 °F 11% 29.85 in 10.0 mi Variable 4.6 mph 18.4 mph N/A   Partly Cloudy
2:56 PM 108.0 °F - 41.0 °F 10% 29.82 in 10.0 mi Variable 4.6 mph - N/A   Partly Cloudy
3:56 PM 108.0 °F - 39.0 °F 10% 29.80 in 10.0 mi Variable 3.5 mph - N/A   Partly Cloudy
4:56 PM 111.0 °F - 37.0 °F 8% 29.78 in 10.0 mi SSW 10.4 mph 17.3 mph N/A   Partly Cloudy
5:56 PM 109.0 °F - 33.1 °F 7% 29.77 in 10.0 mi SSE 11.5 mph 17.3 mph N/A   Mostly Cloudy
6:56 PM 107.1 °F - 48.0 °F 14% 29.77 in 10.0 mi SSW 15.0 mph 25.3 mph N/A   Overcast
7:56 PM 102.0 °F - 48.9 °F 17% 29.78 in 10.0 mi WSW 13.8 mph - N/A   Overcast
8:56 PM 97.0 °F - 48.0 °F 19% 29.80 in 10.0 mi WSW 8.1 mph - N/A   Overcast
9:56 PM 93.9 °F - 46.0 °F 19% 29.81 in 10.0 mi SW 4.6 mph - N/A   Overcast
10:56 PM 90.0 °F - 46.9 °F 23% 29.81 in 10.0 mi ESE 5.8 mph - N/A   Overcast
11:56 PM 88.0 °F - 50.0 °F 27% 29.81 in 10.0 mi SSW 8.1 mph - N/A   Clear